Location: Unspecified
(0.0000°N, 0.0000°E)
Time: 03:31:03
(UTC+00:00)

Hubble Space Telescope - Pass Details

Date: 02 February 2013
Orbit: 539 x 543 km, 28.5° (Epoch: 30 July)

Event Time Altitude Azimuth Distance (km) Brightness Sun altitude
Rises 19:39:22 0° 211° (SSW) 2,678 5.1 -20.5°
Reaches altitude 10° 19:42:33 10° 185° (S) 1,787 3.7 -21.2°
Enters shadow 19:44:39 14° 155° (SSE) 1,539 3.0 -21.7°
